Regional Weather Roundup
Issued by NWS

Home | Current Version | Previous Version | Text Only | Print | Product List | Glossary On
Versions: 1 2 3 4 5 6 7 8 9 10 11 12 13 14 15 16 17 18 19 20 21 22 23 24 25 26 27 28 29 30 31 32 33 34 35 36 37 38 39 40 41 42 43 44 45 46 47 48 49 50
000
ASUS43 KMPX 301710
RWRMN
WEATHER ROUNDUP FOR MINNESOTA
NATIONAL WEATHER SERVICE TWIN CITIES/CHANHASSEN MN
1100 AM CST FRI JAN 30 2015


NOTE: "FAIR" INDICATES FEW OR NO CLOUDS BELOW 12,000 FEET WITH NO
SIGNIFICANT WEATHER AND/OR OBSTRUCTIONS TO VISIBILITY. N/A MEANS
CURRENT SKY AND/OR WEATHER CONDITIONS ARE NOT AVAILABLE.

MNZ060>063-068>070-301800-
   Twin Cities Metro

CITY           SKY/WX    TMP DP  RH WIND       PRES   REMARKS
TWIN CITIES    PTSUNNY   16   7  67 S6        30.51F WCI   7
ST PAUL        MOSUNNY   17   7  64 S8        30.53F WCI   7
CRYSTAL        MOSUNNY   18   8  65 S8        30.49F WCI   8
BLAINE         PTSUNNY   18  10  73 S5        30.50F WCI  11
LAKEVILLE      MOSUNNY   16  10  79 S5        30.50F WCI   9
EDEN PRAIRIE   MOSUNNY   18   9  68 S12       30.49F WCI   5
SOUTH ST PAUL  MOSUNNY   17   8  67 S8        30.52F WCI   7
LAKE ELMO      FAIR      16   9  73 S6        30.52F WCI   7
$$
MNZ001>005-007-008-013>017-022>024-027-028-301800-
   Northwest Minnesota

CITY           SKY/WX    TMP DP  RH WIND       PRES   REMARKS
BEMIDJI        CLOUDY    10   4  78 S8        30.32F WCI  -3
HALLOCK        CLOUDY    14  10  85 S17       30.25F WCI  -3
ROSEAU         PTSUNNY   10   3  72 S9        30.29F WCI  -2
WARROAD        LGT SNOW   7   1  78 S8        30.30F WCI  -6
THIEF RVR FALL CLOUDY    14  10  85 S13       30.28F WCI   0
CROOKSTON      CLOUDY    16  12  86 S17       30.30F WCI   0
FOSSTON        PTSUNNY   10   9  92 S20       30.29F WCI  -8
DETROIT LAKES  MOSUNNY   16  12  86 S13       30.33F WCI   2
MOORHEAD       PTSUNNY   19  18  93 S20       30.33F WCI   4
PARK RAPIDS    CLOUDY    12   5  73 S8        30.34F WCI   0
MAHNOMEN       CLOUDY    14  10  81 S15G21    30.30F WCI  -1
$$
MNZ006-009>011-018-025>026-301800-
   North Central Minnesota

CITY           SKY/WX    TMP DP  RH WIND       PRES   REMARKS
BAUDETTE       LGT SNOW   4  -1  80 SE5       30.32F WCI  -5
FLAG ISLAND    LGT SNOW   3   0  85 S16       30.30F WCI -16
INTL FALLS     CLOUDY     2  -2  83 SE3       30.37S
WASKISH        CLOUDY     9   3  78 SE3       30.33F
BIG FORK       PTSUNNY    9   1  72 S7        30.36S WCI  -3
LONGVILLE      CLOUDY     9   3  78 SE8       30.37F WCI  -4
GRAND RAPIDS   PTSUNNY    9   3  78 S10       30.37S WCI  -6
CRANE LAKE     CLOUDY     1  -4  78 CALM      30.41S
ORR            CLOUDY     1  -4  78 S7        30.34F WCI -11
COOK           CLOUDY     3  -2  78 S5        30.37F WCI  -6
WALKER         CLOUDY     9   3  76 S7        30.34F WCI  -2
$$
MNZ012-019>021-037-301800-
   Northeast Minnesota

CITY           SKY/WX    TMP DP  RH WIND       PRES   REMARKS
DULUTH         PTSUNNY    7   1  76 SW3       30.40F
ELY            CLOUDY     3  -2  78 S5        30.37F WCI  -6
HIBBING        CLOUDY     6  -1  73 S6        30.38F WCI  -4
EVELETH        MOSUNNY    5   1  85 S3        30.39F
DULUTH HARBOR  CLOUDY    10   1  67 CALM      30.50F
TWO HARBORS    PTSUNNY   10   1  67 CALM      30.41F
SILVER BAY     MOSUNNY   12   0  57 S5        30.40F WCI   4
GRAND MARAIS     N/A     11   0  61 SW5       30.47F WCI   3
G MARAIS ARPRT CLOUDY     7  -9  47 CALM      30.33F
$$
MNZ029>031-032-039>041-046>048-054>057-064-301800-
   West Central Minnesota

CITY           SKY/WX    TMP DP  RH WIND       PRES   REMARKS
FERGUS FALLS   CLOUDY    16  12  86 S16       30.40F WCI   0
WHEATON        MOSUNNY   19  18  93 S15       30.38F WCI   5
MORRIS         CLOUDY    19  16  86 S16       30.39F WCI   5
ALEXANDRIA     CLOUDY    14  10  84 S14       30.39F WCI  -1
ELBOW LAKE     CLOUDY    16  13  89 S15G21    30.37F WCI   1
WADENA         MOSUNNY   12   9  85 S9        30.37F WCI   0
GLENWOOD       FLURRIES  16  12  86 S13       30.41F WCI   2
APPLETON       CLOUDY    21  18  86 S9        30.41F WCI  11
BENSON         CLOUDY    18  12  79 S9        30.42F WCI   6
ORTONVILLE     PTSUNNY   23  19  86 S12       30.37F WCI  12
MADISON        CLOUDY    28  23  80 S14       30.40F WCI  17
WILLMAR        CLOUDY    18  12  79 S7        30.45F WCI   8
$$
MNZ033>034-036-042>043-049>051-058-059-301800-
   Central Minnesota

CITY           SKY/WX    TMP DP  RH WIND       PRES   REMARKS
ST CLOUD       MOSUNNY   16   8  71 S9        30.45F WCI   4
SAUK CENTRE    FAIR      15   9  74 S9        30.42F WCI   4
PAYNESVILLE    SUNNY     15   9  77 SE9       30.44F WCI   3
AITKIN         CLOUDY    14   7  73 S8        30.40F WCI   3
PINE RIVER     CLOUDY    10   5  79 S8        30.40F WCI  -1
BRAINERD       CLOUDY    12   5  73 S13       30.41F WCI  -3
STAPLES        PTSUNNY   12   7  79 S9        30.38F WCI   0
LONG PRAIRIE   FAIR      16   9  73 S9        30.41F WCI   4
LITTLE FALLS   PTSUNNY   16   9  73 S7        30.44F WCI   6
LITCHFIELD     SUNNY     19  12  73 S6        30.46F WCI  11
BUFFALO        PTSUNNY   16   9  74 S7        30.49F WCI   6
MAPLE LAKE     PTSUNNY   18  12  78 S7        30.48F WCI   8
$$
MNZ037-044-045-052-053-301800-
   East Central Minnesota

CITY           SKY/WX    TMP DP  RH WIND       PRES   REMARKS
PRINCETON      PTSUNNY   16   9  73 S9        30.46F WCI   4
MORA           PTSUNNY   10   5  79 S7        30.49F WCI   0
CAMBRIDGE      PTSUNNY   14   5  67 S8        30.46F WCI   3
RUSH CITY      PTSUNNY   11   4  72 S6        30.48F WCI   2
MOOSE LAKE     PTSUNNY   12   3  67 S7        30.43F WCI   2
HINCKLEY       FAIR      12   7  79 CALM      30.46F
CLOQUET        PTSUNNY    9   0  66 S5        30.41F WCI   0
MCGREGOR       PTSUNNY   12   7  79 S9        30.42F WCI   0
$$
MNZ071>073-080-081-089-090-097-098-301800-
   Southwest Minnesota

CITY           SKY/WX    TMP DP  RH WIND       PRES   REMARKS
MONTEVIDEO     CLOUDY    19  16  86 S10       30.43F WCI   8
GRANITE FALLS  CLOUDY    19  16  87 SE10      30.46F WCI   8
CANBY          MOSUNNY   27  21  76 S9        30.40F WCI  18
MARSHALL       CLOUDY    25  18  74 S13       30.43F WCI  13
REDWOOD FALLS  CLOUDY    19  14  81 S13       30.47F WCI   6
OLIVIA         CLOUDY    18  14  86 S9        30.46F WCI   6
PIPESTONE      PTSUNNY   25  21  86 SW14      30.38F WCI  13
WINDOM         CLOUDY    19  18  93 SW12      30.46S WCI   7
WORTHINGTON    CLOUDY    21  16  79 SW16      30.43S WCI   7
JACKSON        SUNNY     23  16  74 S9        30.46R WCI  13
TRACY          CLOUDY    24  20  83 S9        30.43F WCI  15
SLAYTON        CLOUDY    22  19  85 SW15      30.42S WCI   9
$$
MNZ065>067-074>077-082>085-091>093-301800-
   South Central Minnesota

CITY           SKY/WX    TMP DP  RH WIND       PRES   REMARKS
MANKATO        MOSUNNY   18  10  73 S8        30.50F WCI   7
NEW ULM        SUNNY     18  10  73 SW8       30.49F WCI   7
ST JAMES       SUNNY     21  12  68 S5        30.51R WCI  15
FAIRMONT       SUNNY     21  10  63 S9        30.48R WCI  11
GLENCOE        SUNNY     20  14  78 S7        30.48F WCI  11
FARIBAULT      MOSUNNY   19  12  73 S7        30.50F WCI  10
OWATONNA       MOSUNNY   18  12  79 SW7       30.49F WCI   8
WASECA         MOSUNNY   19  14  79 SW8       30.52F WCI   9
ALBERT LEA     FAIR      19  12  73 SW5       30.50R WCI  13
$$
MNZ078>079-086>088-094>096-301800-
   Southeast Minnesota

CITY           SKY/WX    TMP DP  RH WIND       PRES   REMARKS
ROCHESTER      PTSUNNY   14   7  73 S5        30.50R WCI   6
RED WING       PTSUNNY   16   5  62 CALM      30.53F
STANTON        MOSUNNY   20  11  69 S6        30.50F WCI  12
DODGE CENTER   MOSUNNY   16  10  79 CALM      30.49F
WINONA         PTSUNNY   18   7  62 CALM      30.56F
AUSTIN         MOSUNNY   18  10  73 CALM      30.51R
PRESTON        MOSUNNY   14   6  72 CALM      30.52R
$$
ABBREVIATIONS USED IN REMARKS
   TC - TEMPERATURES IN CELSIUS
  WCI - WIND CHILL INDEX
   HX - HEAT INDEX
  VSB - VISIBILITY
$$


USA.gov is the U.S. government's official web portal to all federal, state and local government web resources and services.